Terminal Aerodrome Forecast
Issued by NWS Sterling, VA

Current Version | Previous Version | Graphics & Text | Print | Product List | Glossary On
Versions: 1 2 3 4 5 6 7 8 9 10 11 12 13 14 15 16 17 18 19 20 21 22 23 24 25 26 27 28 29 30 31
310
FTUS41 KLWX 032300 AAD
TAFDCA
TAF AMD
KDCA 032300Z 0323/0418 16009KT P6SM FEW010 OVC100
     FM040200 20006KT P6SM BKN015
     FM040700 33012KT 5SM BR OVC050=

USA.gov is the U.S. government's official web portal to all federal, state and local government web resources and services.